Дата Пункты Температура Давл., мм. Влажн., % Ветер Погодные явления
Воздуха Воды Направл. Скорость
02.12.17 08:00 Одесса 8.0 8.0 760 94 С-З 1 20 часов
02.12.17 05:00 Одесса 12.0 8.0 759 88 Ю-З 2 17 часов
02.12.17 02:00 Одесса 12.0 8.0 758 85 Ю-З 3 14 часов
02.12.17 11:00 Одесса 11.0 8.0 758 89 Ю 5 11 часов
02.12.17 08:00 Одесса 11.0 8.0 758 89 Ю 3 08 часов
02.12.17 05:00 Одесса 11.0 8.0 758 93 Ю-З 3 05 часов
02.12.17 02:00 Одесса 11.0 8.0 757 96 Ю 4 02 часа
01.12.17 11:00 Одесса 10.0 8.0 758 96 Ю 2 23 часа
01.12.17 08:00 Одесса 10.0 8.0 757 93 Ю 2 20 часов
01.12.17 05:00 Одесса 11.0 8.0 756 93 Ю-З 2 17 часов
01.12.17 02:00 Одесса 11.0 8.0 755 90 Ю-З 3 14 часов
01.12.17 11:00 Одесса 11.0 8.0 755 92 Ю 4 11 часов
01.12.17 08:00 Одесса 11.0 8.0 755 92 Ю-З 4 08 часов
01.12.17 05:00 Одесса 11.0 7.0 754 88 Ю 5 05 часов
01.12.17 02:00 Одесса 11.0 7.0 755 84 Ю 4 02 часа
30.11.17 11:00 Одесса 11.0 8.0 755 82 Ю 6 23 часа
30.11.17 08:00 Одесса 11.0 8.0 756 77 Ю 7 20 часов
30.11.17 05:00 Одесса 10.0 8.0 756 88 Ю 7 17 часов
30.11.17 02:00 Одесса 10.0 8.0 756 90 Ю 6 14 часов
30.11.17 11:00 Одесса 9.0 7.0 758 85 Ю 3 11 часов
Количество строк
1 2 3 4 5 6 7 8 9 10
Page 5 of 305